Home > Weather > Dallas > Past weeks

Flag for U.S.A. Weather for the Past 2 Weeks in Dallas, Texas, U.S.A.

Now
57 °F

Passing clouds.


Feels Like: 53 °F
Forecast: 33 / 57 °F
Wind: 17 mph from Southeast

Location: Dallas Love Field

Current Time: Feb 5, 2016 at 5:08:42 PM

Latest Report: Feb 5, 2016 at 3:53 PM


Visibility: 10 mi

Pressure: 30.29 "Hg

Humidity: 26%

Dew point: 22 °F

Location of DallasLocation

Historic Weather in Dallas — Graph

°F

Dallas Temperature Yesterday

Maximum temperature yesterday: 54 °F (at 3:53 PM)
Minimum temperature yesterday: 32 °F (at 5:53 AM)
Average temperature yesterday: 42 °F

High & Low Weather Summary for the Past Weeks

 TemperatureHumidityPressure
High76 °F (Jan 29, 2:53 PM)87% (Jan 25, 7:53 AM)30.51 "Hg (Jan 25, 7:53 AM)
Low28 °F (Jan 23, 2:53 AM)18% (Feb 2, 3:53 PM)29.51 "Hg (Feb 1, 5:53 PM)
Average50 °F54%30.06 "Hg
* Reported Jan 21 3:53 PM — Feb 5 3:53 PM, Dallas, Weather by CustomWeather, © 2016

Note: Actual official high and low records may vary slightly from our data, if they occured in-between our weather recording intervals... More about our weather records

Advertising

Dallas Weather History for the Previous 24 Hours

 ConditionsComfort  
Time TempWeatherWind HumidityBarometerVisibility
3:53 PM
Fri, Feb 5
57 °FPassing clouds.17 mph26%30.29 "Hg10 mi
2:53 PM57 °FPassing clouds.16 mph26%30.30 "Hg10 mi
1:53 PM57 °FScattered clouds.14 mph27%30.32 "Hg10 mi
12:53 PM56 °FScattered clouds.13 mph29%30.36 "Hg10 mi
11:53 AM53 °FBroken clouds.16 mph31%30.40 "Hg10 mi
10:53 AM51 °FPartly sunny.14 mph35%30.43 "Hg10 mi
9:53 AM47 °FPartly sunny.15 mph39%30.45 "Hg10 mi
8:53 AM44 °FPartly sunny.12 mph41%30.45 "Hg10 mi
7:53 AM40 °FPartly sunny.9 mph51%30.45 "Hg10 mi
6:53 AM38 °FPassing clouds.8 mph55%30.44 "Hg10 mi
5:53 AM37 °FPassing clouds.7 mph57%30.43 "Hg10 mi
4:53 AM38 °FClear.6 mph58%30.41 "Hg10 mi
3:53 AM42 °FClear.12 mph47%30.39 "Hg10 mi
2:53 AM42 °FClear.12 mph49%30.40 "Hg10 mi
1:53 AM40 °FClear.8 mph53%30.40 "Hg10 mi
12:53 AM38 °FClear.8 mph58%30.42 "Hg10 mi
11:53 PM
Thu, Feb 4
41 °FClear.7 mph51%30.43 "Hg10 mi
10:53 PM39 °FClear.6 mph55%30.45 "Hg10 mi
9:53 PM44 °FClear.6 mph43%30.43 "Hg10 mi
8:53 PM43 °FClear.No wind47%30.41 "Hg10 mi
7:53 PM45 °FClear.No wind40%30.40 "Hg10 mi
6:53 PM49 °FClear.3 mph33%30.39 "Hg10 mi
5:53 PM51 °FSunny.5 mph29%30.39 "Hg10 mi
Weather by CustomWeather, © 2016

See weather overviewHow to use our weather pages